Tracking 28531 objects as of 26-Feb-2024
HD Live streaming from Space Station
objects crossing your sky now

ATLAS 5 CENTAUR R/B

Track ATLAS 5 CENTAUR R/B now!


NORAD ID: 39505
Int'l Code: 2014-004B
Perigee: 4,805.1 km
Apogee: 34,546.3 km
Inclination: 24.5 °
Period: 697.3 minutes
Semi major axis: 26046 km
RCS: Unknown
Launch date: January 23, 2014
Source: United States (US)
Launch site: AIR FORCE EASTERN TEST RANGE (AFETR)

Note: This is a ROCKET BODY
Your satellite tracking list
Your tracking list is empty




NASA's NSSDC Master Catalog

Two Line Element Set (TLE):
1 39505U 14004B   24056.37685742  .00000020  00000-0  00000-0 0  9992
2 39505  24.4611 145.4873 5709205  44.8615 349.0452  2.06525386 76131
Source of the keplerian elements: AFSPC